When you browse on this site, cookies collect data to enhance your experience and personalize the content and advertising you see.
Visit our Privacy Policy to learn more. By continuing to use the site, you agree to this use of cookies and data.
  • In Sweden
  • List of Countries
  • For 7 days
  • Water Temperature
  • Satellite Maps
  • Weather Map
  • Weather Widgets
  • user-avatar
    Login

    Hourly Weather Escaldes-Engordany

    Today, 19 July, Friday

    Time Temperature Precipitation Wind Pressure Humidity
    00:00 +12°C° 0 mm 0 mps 640 mmHg 94%
    01:00 +12°C° 0 mm 0 mps 640 mmHg 94%
    02:00 +12°C° 0 mm 0 mps 640 mmHg 93%
    03:00 +12°C° 0 mm 1 mps 640 mmHg 92%
    04:00 +13°C° 0 mm 1 mps 640 mmHg 88%
    05:00 +14°C° 0 mm 1 mps 640 mmHg 85%
    06:00 +15°C° 0 mm 1 mps 641 mmHg 81%
    07:00 +18°C° 0 mm 1 mps 642 mmHg 70%
    08:00 +20°C° 0 mm 1 mps 642 mmHg 59%
    09:00 +23°C° 0 mm 1 mps 643 mmHg 48%
    10:00 +24°C° 0 mm 2 mps 643 mmHg 44%
    11:00 +25°C° 0 mm 2 mps 643 mmHg 41%
    12:00 +26°C° 0 mm 2 mps 644 mmHg 38%
    13:00 +26°C° 0 mm 2 mps 643 mmHg 38%
    14:00 +26°C° 0 mm 2 mps 643 mmHg 39%
    15:00 +26°C° 0 mm 2 mps 643 mmHg 39%
    16:00 +25°C° 0 mm 2 mps 642 mmHg 45%
    17:00 +24°C° 0 mm 2 mps 642 mmHg 52%
    18:00 +23°C° 0 mm 2 mps 641 mmHg 59%
    19:00 +21°C° 0 mm 1 mps 640 mmHg 66%
    20:00 +19°C° 0 mm 1 mps 640 mmHg 73%
    21:00 +16°C° 0 mm 1 mps 639 mmHg 80%
    22:00 +16°C° 0 mm 1 mps 639 mmHg 79%
    23:00 +15°C° 0 mm 1 mps 639 mmHg 78%

    Tomorrow, 20 July, Saturday

    Time Temperature Precipitation Wind Pressure Humidity
    00:00 +15°C° 0 mm 1 mps 639 mmHg 78%
    01:00 +16°C° 0 mm 1 mps 639 mmHg 76%
    02:00 +16°C° 0 mm 1 mps 639 mmHg 74%
    03:00 +16°C° 0 mm 1 mps 639 mmHg 72%
    04:00 +18°C° 0 mm 1 mps 640 mmHg 71%
    05:00 +18°C° 0 mm 1 mps 640 mmHg 69%
    06:00 +19°C° 0 mm 1 mps 641 mmHg 68%
    07:00 +21°C° 0 mm 1 mps 642 mmHg 60%
    08:00 +23°C° 0 mm 2 mps 642 mmHg 51%
    09:00 +25°C° 0 mm 2 mps 643 mmHg 43%
    10:00 +26°C° 0 mm 2 mps 644 mmHg 40%
    11:00 +27°C° 0 mm 2 mps 644 mmHg 37%
    12:00 +28°C° 0 mm 2 mps 645 mmHg 35%
    13:00 +28°C° 0 mm 2 mps 645 mmHg 35%
    14:00 +28°C° 0 mm 3 mps 644 mmHg 35%
    15:00 +28°C° 0 mm 3 mps 644 mmHg 36%
    16:00 +27°C° 0.1 mm 2 mps 644 mmHg 44%
    17:00 +26°C° 0.1 mm 2 mps 644 mmHg 52%
    18:00 +25°C° 0.1 mm 1 mps 643 mmHg 61%
    19:00 +22°C° 0.1 mm 1 mps 643 mmHg 68%
    20:00 +20°C° 0.1 mm 1 mps 643 mmHg 75%
    21:00 +18°C° 0.1 mm 1 mps 643 mmHg 82%
    22:00 +18°C° 0 mm 1 mps 643 mmHg 82%
    23:00 +18°C° 0 mm 1 mps 643 mmHg 82%

    Day after tomorrow, 21 July, Sunday

    Time Temperature Precipitation Wind Pressure Humidity
    00:00 +16°C° 0 mm 1 mps 643 mmHg 83%
    01:00 +16°C° 0 mm 1 mps 643 mmHg 81%
    02:00 +16°C° 0 mm 1 mps 643 mmHg 80%
    03:00 +16°C° 0 mm 1 mps 643 mmHg 78%
    04:00 +18°C° 0 mm 1 mps 643 mmHg 73%
    05:00 +19°C° 0 mm 1 mps 644 mmHg 69%
    06:00 +19°C° 0 mm 1 mps 644 mmHg 64%
    07:00 +22°C° 0 mm 1 mps 645 mmHg 55%
    08:00 +24°C° 0 mm 2 mps 646 mmHg 46%
    09:00 +27°C° 0 mm 2 mps 647 mmHg 37%
    10:00 +28°C° 0 mm 2 mps 647 mmHg 34%
    11:00 +29°C° 0 mm 2 mps 647 mmHg 32%
    12:00 +30°C° 0 mm 2 mps 647 mmHg 30%
    13:00 +30°C° 0 mm 3 mps 647 mmHg 30%
    14:00 +30°C° 0 mm 3 mps 647 mmHg 31%
    15:00 +30°C° 0 mm 3 mps 647 mmHg 32%
    16:00 +28°C° 0 mm 2 mps 646 mmHg 40%
    17:00 +27°C° 0 mm 2 mps 646 mmHg 47%
    18:00 +26°C° 0 mm 1 mps 645 mmHg 55%
    19:00 +24°C° 0 mm 1 mps 645 mmHg 61%
    20:00 +21°C° 0 mm 1 mps 645 mmHg 66%
    21:00 +19°C° 0 mm 1 mps 644 mmHg 72%
    22:00 +19°C° 0 mm 1 mps 644 mmHg 70%
    23:00 +19°C° 0 mm 1 mps 644 mmHg 69%

    22 July, Monday

    Time Temperature Precipitation Wind Pressure Humidity
    00:00 +19°C° 0 mm 1 mps 644 mmHg 68%
    01:00 +19°C° 0 mm 1 mps 644 mmHg 64%
    02:00 +19°C° 0 mm 1 mps 644 mmHg 60%
    03:00 +19°C° 0 mm 1 mps 644 mmHg 56%
    04:00 +19°C° 0 mm 1 mps 644 mmHg 54%
    05:00 +20°C° 0 mm 1 mps 644 mmHg 52%
    06:00 +21°C° 0 mm 1 mps 645 mmHg 51%
    07:00 +23°C° 0 mm 1 mps 645 mmHg 44%
    08:00 +26°C° 0 mm 2 mps 646 mmHg 37%
    09:00 +28°C° 0 mm 2 mps 647 mmHg 30%
    10:00 +29°C° 0 mm 2 mps 647 mmHg 28%
    11:00 +30°C° 0 mm 3 mps 647 mmHg 27%
    12:00 +31°C° 0 mm 3 mps 647 mmHg 25%
    13:00 +30°C° 0 mm 3 mps 647 mmHg 26%
    14:00 +30°C° 0 mm 3 mps 647 mmHg 26%
    15:00 +30°C° 0 mm 3 mps 647 mmHg 26%
    16:00 +29°C° 0 mm 3 mps 646 mmHg 33%
    17:00 +28°C° 0 mm 2 mps 645 mmHg 39%
    18:00 +26°C° 0 mm 2 mps 645 mmHg 46%
    19:00 +24°C° 0 mm 2 mps 644 mmHg 49%
    20:00 +22°C° 0 mm 1 mps 644 mmHg 53%
    21:00 +20°C° 0 mm 1 mps 643 mmHg 56%
    22:00 +20°C° 0 mm 1 mps 643 mmHg 56%
    23:00 +19°C° 0 mm 1 mps 643 mmHg 55%

    23 July, Tuesday

    Time Temperature Precipitation Wind Pressure Humidity
    00:00 +19°C° 0 mm 1 mps 643 mmHg 54%
    01:00 +19°C° 0 mm 1 mps 643 mmHg 52%
    02:00 +19°C° 0 mm 1 mps 642 mmHg 51%
    03:00 +19°C° 0 mm 1 mps 642 mmHg 49%
    04:00 +19°C° 0 mm 1 mps 642 mmHg 50%
    05:00 +20°C° 0 mm 1 mps 642 mmHg 50%
    06:00 +20°C° 0 mm 1 mps 642 mmHg 50%
    07:00 +23°C° 0 mm 1 mps 643 mmHg 43%
    08:00 +25°C° 0 mm 2 mps 644 mmHg 37%
    09:00 +28°C° 0 mm 2 mps 645 mmHg 30%
    10:00 +29°C° 0 mm 2 mps 645 mmHg 29%
    11:00 +30°C° 0 mm 2 mps 645 mmHg 27%
    12:00 +30°C° 0 mm 2 mps 645 mmHg 26%
    13:00 +30°C° 0 mm 2 mps 645 mmHg 27%
    14:00 +30°C° 0 mm 2 mps 644 mmHg 28%
    15:00 +30°C° 0 mm 2 mps 644 mmHg 30%
    16:00 +28°C° 0 mm 2 mps 643 mmHg 36%
    17:00 +27°C° 0 mm 2 mps 643 mmHg 41%
    18:00 +26°C° 0 mm 2 mps 642 mmHg 47%
    19:00 +24°C° 0 mm 1 mps 642 mmHg 52%
    20:00 +22°C° 0 mm 1 mps 642 mmHg 58%
    21:00 +19°C° 0 mm 1 mps 641 mmHg 63%
    22:00 +19°C° 0 mm 1 mps 641 mmHg 62%
    23:00 +19°C° 0 mm 1 mps 641 mmHg 61%

    24 July, Wednesday

    Time Temperature Precipitation Wind Pressure Humidity
    00:00 +19°C° 0 mm 1 mps 641 mmHg 60%
    01:00 +19°C° 0 mm 1 mps 640 mmHg 59%
    02:00 +18°C° 0 mm 1 mps 640 mmHg 59%
    03:00 +18°C° 0 mm 1 mps 639 mmHg 58%
    04:00 +19°C° 0 mm 1 mps 640 mmHg 58%
    05:00 +20°C° 0 mm 1 mps 640 mmHg 59%
    06:00 +20°C° 0 mm 1 mps 640 mmHg 60%
    07:00 +22°C° 0 mm 1 mps 641 mmHg 52%
    08:00 +25°C° 0 mm 1 mps 642 mmHg 44%
    09:00 +27°C° 0 mm 2 mps 642 mmHg 36%
    10:00 +28°C° 0 mm 2 mps 642 mmHg 34%
    11:00 +29°C° 0 mm 2 mps 642 mmHg 32%
    12:00 +29°C° 0 mm 2 mps 642 mmHg 30%
    13:00 +29°C° 0 mm 3 mps 642 mmHg 31%
    14:00 +29°C° 0 mm 3 mps 641 mmHg 31%
    15:00 +29°C° 0 mm 3 mps 641 mmHg 32%
    16:00 +27°C° 0 mm 3 mps 640 mmHg 38%
    17:00 +26°C° 0 mm 2 mps 640 mmHg 43%
    18:00 +24°C° 0 mm 2 mps 639 mmHg 49%
    19:00 +21°C° 0 mm 2 mps 638 mmHg 54%
    20:00 +20°C° 0 mm 1 mps 638 mmHg 59%
    21:00 +18°C° 0 mm 1 mps 637 mmHg 64%
    22:00 +18°C° 0 mm 1 mps 637 mmHg 64%
    23:00 +18°C° 0 mm 1 mps 637 mmHg 64%
    Show more